Regional Weather Roundup
Issued by NWS Jackson, KY

Home | Current Version | Previous Version | Graphics & Text | Print | Product List | Glossary On
Versions: 1 2 3 4 5 6 7 8 9 10 11 12 13 14 15 16 17 18 19 20 21 22 23 24 25 26 27
000
ASUS43 KJKL 281310
RWRJKL

EAST KENTUCKY HOURLY WEATHER ROUNDUP
NATIONAL WEATHER SERVICE JACKSON KY
900 AM EDT THU JUL 28 2016

NOTE: "FAIR" INDICATES FEW OR NO CLOUDS BELOW 12,000 FEET WITH
NO SIGNIFICANT WEATHER AND/OR OBSTRUCTIONS TO VISIBILITY.

* THESE REPORTS ARE NOT UNDER NWS QUALITY CONTROL AND MAY NOT
  REPORT WEATHER SUCH AS PRECIPITATION AND FOG.

KYZ079-080-083-085-087-088-110-112-115-119-120-281400
...EASTERN KENTUCKY...

CITY           SKY/WX    TMP DP  RH WIND       PRES   REMARKS
JACKSON        CLOUDY    72  69  90 CALM      29.98S
LONDON         CLOUDY    75  69  81 S6        29.97R
SOMERSET*      CLOUDY    73  73 100 S6        29.96S
MONTICELLO*    CLOUDY   N/A N/A N/A S9G17     29.97R
WILLIAMSBURG*  MOSUNNY   75  75 100 SE5       29.98R
MIDDLESBORO*   CLOUDY    74  72  95 NE3       30.00R
HARLAN APT*    CLOUDY    70  68  94 CALM      30.01S
PIKE CO APT*   CLOUDY    71  71 100 CALM      29.99S
BIG SANDY APT* CLOUDY    72  72  98 CALM      29.99S
MOREHEAD APT*  LGT RAIN  72  72 100 N5        29.97S
ASHLAND*       CLOUDY    73  72  94 CALM      29.93S
$$

KYZ035-036-041-042-044-050-067-078-099-281400
...CENTRAL KENTUCKY...

CITY           SKY/WX    TMP DP  RH WIND       PRES   REMARKS
MT STERLING*   RAIN      72  72 100 CALM      29.97R
FLEMING/MASON* RAIN      71  71  99 CALM      29.97S
DANVILLE*      HVY RAIN  72  70  94 NW12      29.96R
LEXINGTON      HVY RAIN  72  70  93 N5        29.95R FOG
FRANKFORT      LGT RAIN  72  69  90 SE3       29.93F
LOUISVILLE     LGT RAIN  75  72  90 SW6       29.91F
LEBANON*       HVY RAIN  72  72 100 CALM      29.95S VSB 1/2
GLASGOW*       CLOUDY    71  71 100 N3        29.94R
BOWLING GREEN  CLOUDY    74  71  91 CALM      29.94S
$$

KYZ091>093-OHZ055-061-077-WVZ005-015-034-035-042-281400
...SOUTHERN OHIO/WEST VIRGINIA...

CITY           SKY/WX    TMP DP  RH WIND       PRES   REMARKS
COVINGTON      CLOUDY    72  72 100 S12       29.90F
COLUMBUS       LGT RAIN  74  71  91 SW5       29.93R FOG
DAYTON         CLOUDY    73  69  87 SW6       29.95S
WILMINGTON     LGT RAIN  71  69  93 CALM      29.93F
HUNTINGTON     CLOUDY    73  71  93 CALM      29.96R
CHARLESTON     LGT RAIN  74  71  91 W3        29.98R
PINEVILLE*       N/A     74  69  86 MISG      30.07R
BECKLEY          N/A     72  67  84 S5        30.06R
BLUEFIELD        N/A     71  65  81 W6        30.09R
LOGAN CO APT*  CLOUDY    73  70  88 CALM      29.99S
$$

VAZ002-007-008-TNZ017-027-036-066-071-281400
...SOUTHWEST VIRGINIA/EAST TENNESSEE...

CITY           SKY/WX    TMP DP  RH WIND       PRES   REMARKS
JONESVILLE*    CLOUDY    72  72 100 CALM      30.04R
ABINGDON*      CLOUDY    74  73  95 W3        30.07R FOG
BRISTOL        PTSUNNY   74  71  91 CALM      30.03S
MORRISTOWN*    PTSUNNY   81  70  69 W8        30.00S
SEVIERVILLE*   MOSUNNY   82  68  61 W5        29.98S
KNOXVILLE      PTSUNNY   80  69  69 SW16      29.98S
OAK RIDGE      CLOUDY    79  70  74 VRB3      30.00S
CROSSVILLE     CLOUDY    73  70  90 VRB5      30.03S
NASHVILLE      CLOUDY    78  73  84 S9        29.94S
$$

...KEY TO REMARKS...
VSB - VISIBILITY IN MILES
WCI - WIND CHILL INDEX
HX  - HEAT INDEX

$$




USA.gov is the U.S. government's official web portal to all federal, state and local government web resources and services.